Content
SEND FEEDBACK

Daily
Averages
Monthly
Summary
United States of America

PRESCOTT VALLEY, ARIZONA


Home > North America > United States > Arizona
Elevation: 5020 feet     Latitude: 34 39N     Longitude: 112 26W

WEATHER
 
SELECT A DAY
Number of Records: 175,005;   Date Range: 1/1/95 - 7/26/14
 
SHARE

PRINT THIS DATA

[ ← Previous Day ]
WEATHER ALMANAC - JANUARY 23, 2013
[ Next Day → ]
[ °C ]   °F
Weather ElementAverageHighLow
Temperature45.5 °F64 °F (3:53 pm)28.9 °F (4:53 am)
Dewpoint17.6 °F23 °F (9:53 pm)12.9 °F (11:53 am)
Humidity36.2 %61 % (4:53 am)16 % (3:53 pm)
Barometer30.21 in30.29 in (8:53 am)30.14 in (3:53 pm)
Wind Speed4 mph8.1 mph (11:53 pm)
Weather ElementAverage
Visibility10 mi
Wind DirectionSE (140.5 °)

Weather ElementTotal
Precipitation---
Heating Degree Days18.6 (Base 65)
Averaged from 22 records on January 23, 2013
WEATHER CONDITIONS BREAKOUT
WIND DIRECTION BREAKOUT
WEATHER BY HOUR - JANUARY 23, 2013
[ °C ]   °F
Local TimeTemperatureDewpointHumidityBarometerVisibilityWind DirectionWind SpeedGust SpeedPrecipitationEventsConditions
1:53 AM34.0 °F18.0 °F52 %30.19 in10.0 miSW (220°)4.6 mphClear
2:53 AM30.9 °F17.1 °F57 %30.21 in10.0 miCalmClear
3:53 AM33.1 °F17.1 °F52 %30.20 in10.0 miSouth (170°)4.6 mphClear
4:53 AM28.9 °F17.1 °F61 %30.21 in10.0 miSSW (200°)6.9 mphClear
5:53 AM28.9 °F16.0 °F58 %30.22 in10.0 miSouth (190°)6.9 mphClear
6:53 AM30.0 °F16.0 °F56 %30.28 in10.0 miSSW (200°)6.9 mphClear
8:53 AM33.1 °F16.0 °F50 %30.29 in10.0 miCalmClear
9:53 AM42.1 °F18.0 °F38 %30.29 in10.0 miCalmClear
10:53 AM46.9 °F14.0 °F27 %30.28 in10.0 miNorth (350°)3.5 mphClear
11:53 AM48.9 °F12.9 °F24 %30.27 in10.0 miCalmClear
12:53 PM52.0 °F15.1 °F23 %30.23 in10.0 miNorth (360°)3.5 mphClear
1:53 PM57.0 °F14.0 °F18 %30.19 in10.0 miNNE (20°)4.6 mphClear
2:53 PM57.9 °F12.9 °F17 %30.18 in10.0 miNE (40°)4.6 mphClear
3:53 PM64.0 °F16.0 °F16 %30.14 in10.0 miESE (120°)4.6 mphClear
4:53 PM64.0 °F18.0 °F17 %30.16 in10.0 miCalmClear
5:53 PM55.9 °F16.0 °F21 %30.18 in10.0 miCalmClear
6:53 PM48.9 °F21.0 °F33 %30.21 in10.0 miSSW (210°)6.9 mphClear
7:53 PM51.1 °F21.9 °F32 %30.21 in10.0 miSSW (210°)6.9 mphClear
8:53 PM48.0 °F21.9 °F36 %30.21 in10.0 miSouth (190°)3.5 mphClear
9:53 PM48.0 °F23.0 °F37 %30.19 in10.0 miSSW (200°)4.6 mphClear
10:53 PM48.9 °F23.0 °F36 %30.17 in10.0 miSSW (200°)6.9 mphClear
11:53 PM48.9 °F23.0 °F36 %30.17 in10.0 miSSW (210°)8.1 mphClear
Hourly data recorded from KPRC, located miles away from Prescott Valley, Arizona







STORIES FROM OUR PARTNERS